Погода Валаам Остров

Хотите узнать прогноз погоды Валаам Остров? Тогда Вам сюда: Погода Валаам Остров

Поиск расширенной информации на нашем сайте:

Полезная информация:

Новости сайта



02.01.2020
Опубликован Долгосрочный прогноз погоды по городам России и ближнего зарубежья на январь 2020 года.
Карты: Прогноз на январь и февраль 2020 года, Сравнение прогнозируемой аномалии приземной температуры воздуха на январь 2020 года по разным моделям.




Погода Валаам Остров - сегодня

Время (UTC), дата Ветер
(°,м/с) 
Видим.   Явления Облачность Т
(°С)
Тd
(°С)
f(%) Тe
(°С)
Pmin
(гПа)
dP
(гПа)
Po
(мм)
O2
(г/м3)
Тmin Tmax R s Состояние
почвы
12 29.11.20 090 (В) 20000 м  в посл. час ливневой снег  10/4 300 м кучево-дожд., средняя 
[Cb cap|Ac und]
-1.5 -2.8 91 -3  1032.8  -0.9  773  314           
15 29.11.20 090 (В) н/о    10/10 600 м 
[Sc]
-1 -2.6 89 -3  1032  -0.7  773  313      0.3     
18 29.11.20 090 (В) н/о    10/8 600 м средняя 
[Sc|Ac As]
-1.1 -2.8 88 -3  1030.7  -1.3  772  313    -0.7  0.0     
21 29.11.20 090 (В) н/о    10/3 600 м средняя 
[Sc|As trans]
-0.8 -2.3 90 -3  1029.7  -1  771  312           
00 30.11.20 110 (В) н/о    10/8 600 м средняя 
[Sc|As trans]
+0.5 -0.9 90 -1  1027.5  -2.2  769  309           
03 30.11.20 090 (В) н/о    н/о 
+0.1 -1 92 -2  1025.8  -1.7  768  309  -1.1    0.2     
06 30.11.20 140 (ЮВ) н/о  слаб. ливневой дождь  10/10 300 м кучево-дожд. 
[Cb cap]
+2.8 +1.8 93 -1  1024  -1.8  767  305  -1.1    0.8     
09 30.11.20 160 (Ю) 20000 м  {ливн. осадки}  10/10 300 м кучево-дожд. 
[Cb cap]
+3.7 +2.1 89 +1  1022.8  -1.2  766  304           
12 30.11.20 180 (Ю) 20000 м  слаб. ливневой дождь  10/10 300 м кучево-дожд. 
[Cb cap]
+2.9 +1.5 90 1021.7  -1.1  765  305           
15 30.11.20 170 (Ю) н/о  {ливн. осадки}  10/8 300 м кучево-дожд., средняя 
[Cb cap|Ac trans]
+3.3 -0.4 77 1020.3  -1.4  764  304         
18 30.11.20 210 (ЮЗ) н/о  {ливн. осадки}  8/5 600 м средняя 
[Sc|Ac trans]
+2.4 -0.6 81 -1  1019.1  -1.2  763  305    +3.9  0.8     
21 30.11.20 190 (Ю) н/о    10/8 600 м средняя 
[Sc|Ac trans]
+2 -0.8 82 -1  1018.6  -0.5  762  305           
00 01.12.20 220 (ЮЗ) 7-10{10}  н/о  {ливн. осадки}  10/10 300 м кучево-дожд. 
[Cb cap]
+1.9 -1.1 80 -2  1018.1  -0.5  762  305           
03 01.12.20 210 (ЮЗ) 7{10}  н/о    8/6 600 м средняя 
[Sc|Ac trans]
+2.1 -1.7 76 -1  1018.2  0.1  762  305  +0.9    0.1     
06 01.12.20 200 (Ю) н/о    10/10 600 м 
[Sc]
+2.1 -0.5 83 -1  1018.4  0.2  762  305  +0.9    0.1     
09 01.12.20 210 (ЮЗ) 7-10{10}  20000 м    9/8 600 м средняя 
[Sc|Ac trans]
+2.3 -0.1 84 -1  1019.8  1.4  763  305           
12 01.12.20 190 (Ю) 7{11}  4000 м  слаб. дождь  10/10 300 м 
[Frnb]
+2.2 +0.9 91 -1  1019.8  763  305           
15 01.12.20 220 (ЮЗ) 11-16{17}  н/о  {дождь}  10/6 600 м средняя 
[Sc|As op]
+3.8 +2.3 90 1020.6  0.8  764  303      0.7     
21 01.12.20 240 (ЮЗ) 7-10{14}  н/о  {дождь}  10/8 600 м средняя 
[Sc|As op]
+4.9 +3.5 91 +2  1024.6  2.2  767  303           
00 02.12.20 260 (З) 7{10}  н/о  слаб. дождь  10/8 300 м средняя 
[Frnb|As op]
+4.7 +3.4 91 +2  1026  1.4  768  304           
03 02.12.20 280 (З) н/о  слаб. дождь  10/10 300 м 
[Frnb]
+4.3 +2.8 90 +1  1027.2  1.2  769  305  +3.8    0.7     
06 02.12.20 260 (З) н/о  {дождь}  10/10 300 м 
[St]
+4.4 +2.9 90 +2  1028.4  1.2  770  305  +4    0.9     
09 02.12.20 250 (З) 7{10}  20000 м  {ливн. осадки}  10/10 300 м 
[St]
+4.2 +2.9 91 +1  1029.5  1.1  771  305           
12 02.12.20 240 (ЮЗ) 8-10{10}  10 км  {ливн. осадки}  10/9 300 м кучево-дожд., средняя 
[Cb cap|Ac trans]
+4.1 +2.2 87 +1  1030  0.5  771  306           
15 02.12.20 230 (ЮЗ) 7{10}  н/о    9/8 600 м средняя 
[Sc|Ac trans]
+2.7 +0.4 85 -1  1030.4  0.4  771  308         
Время (UTC), дата Ветер
(°,м/с) 
Видим.   Явления Облачность Т
(°С)
Тd
(°С)
f(%) Тe
(°С)
Pmin
(гПа)
dP
(гПа)
Po
(мм)
O2
(г/м3)
Тmin Tmax R s Состояние
почвы

Для получения пояснительной информации подведите курсор к названию столбца.

ПОГОДА Валаам Остров - архив

Всё, что Вы хотите узнать о погоде Валаам Остров - удобно и подробно!

Выберите нужную дату (начиная с 1 января 2019* года) и нажмите кнопку "Найти".
Будут отображены архивные сводки погоды по пункту Валаам Остров, начиная с указанной даты.


Отображать данные в формате CSV (для использования в таблицах Excel)


Внимание! Наш архив погоды предназначен исключительно для личного некоммерческого использования в познавательных целях. Если Вам необходимы официальные справки о состоянии погоды (для производственных, юридических, коммерческих и т.п. целей), обращайтесь в органы Росгидромета.

*Примечание: данная дата относится к архиву по метеостанциям СССР (Россия, СНГ, Балтия).
Архив по метеостанциям Зарубежной Европы и Азии (кроме Китая) хранится 10 дней, по другим регионам земного шара (Китай, Африка, Америка, Австралия, Океания) - 1 день.

Валаам Остров - район местоположения метеостанции


Название, широта, долгота, высота метеостанции:
Валаам Остров 61.4°ш. 30.9°д. 9 м над ур. моря [Российская Федерация]

Дополнительная информация

В oтличие oт бoльшинства пoгoдных сайтoв мы публикуем пoдрoбную метеoинфoрмацию в детальнoм прoфессиoнальнoм фoрмате.

Характеристики температуры и влажнoсти вoздуха измеряются на высoте 2 м в тени вдали oт зданий и деревьев.
Скoрoсть ветра измеряется на высoте 10 м (на урoвне рoста челoвека скoрoсть ветра ниже в 1.5-2 раза). Если метеoстанция нахoдится в гoрoде или в лесу, тo скoрoсть ветра занижена на 2-4 м/с пo сравнению с oткрытым местoм. Скoрoсть ветра над акватoриями крупных рек и oзёр, а также на вершинах хoлмoв на 2-5 м/с выше, чем в oбычных услoвиях.
Атмoсфернoе давление в разных тoчках местнoсти мoжет значительнo oтличаться oт давления на метеoстанции, в зависимoсти oт услoвий рельефа (при пoдъёме на 10 м давление пoнижается примернo на 1 мм рт.ст.).